Theta_e
296 293 291 294 297 297 296 295 294 298 298 300 300 301 304 307 304 305 307 309 308 308 310 308 308 309 308 309 307 305 302 300 304 306 306 306 306 308 309 310 309 308 307 305
292 289 295 297 297 296 296 295 294 295 296 296 298 298 302 305 306 307 308 308 309 310 310 309 308 308 307 307 307 306 303 301 301 305 306 305 306 307 308 309 309 308 307 306
290 291 295 295 295 295 295 293 294 293 294 295 294 294 297 301 304 306 308 310 310 309 309 309 308 307 308 307 307 307 306 303 301 302 303 304 302 304 304 305 306 307 307 306
290 294 292 293 293 295 291 298 296 293 292 288 292 286 295 298 299 301 304 305 307 309 311 311 309 308 308 308 310 308 307 305 303 302 300 299 298 297 299 303 304 305 306 306
288 289 291 291 292 296 292 298 295 293 292 290 290 287 292 295 294 297 299 301 303 305 308 308 310 310 310 311 310 309 308 307 304 302 301 299 298 300 302 301 302 303 305 305
290 292 293 293 295 297 296 294 293 293 291 284 289 289 290 294 294 295 297 298 299 300 300 301 307 311 311 312 312 310 308 306 306 302 301 300 300 300 300 300 299 301 302 303
287 288 291 293 291 295 295 291 284 283 284 282 286 286 290 294 295 294 295 296 297 298 299 300 300 301 308 310 310 309 308 306 305 303 302 301 301 301 301 300 299 299 300 300
281 280 288 292 292 290 292 291 285 278 280 282 283 282 289 292 294 294 295 296 298 298 299 300 300 301 302 306 309 308 307 306 305 304 302 302 302 302 302 301 301 300 300 300
282 282 290 290 292 294 291 288 293 284 280 281 284 288 291 292 293 294 294 296 297 298 299 300 301 301 302 303 305 307 306 306 305 303 303 303 302 301 301 302 302 301 301 300
287 282 287 288 290 291 291 293 284 285 279 278 282 284 287 289 290 292 294 295 296 297 298 300 300 301 301 303 304 304 305 304 305 304 303 303 303 302 302 301 300 300 300 300
288 286 282 287 286 288 287 287 288 288 285 281 280 284 292 292 292 293 294 296 297 297 297 297 299 301 301 302 302 302 302 302 303 303 302 302 302 302 301 300 300 300 299 299
289 287 280 283 288 289 291 290 289 284 280 283 283 285 290 295 294 295 294 295 296 297 297 297 297 299 301 301 301 301 301 300 301 301 300 300 301 300 299 299 299 300 299 299
289 286 279 280 285 286 285 288 291 290 287 280 281 284 289 294 293 294 294 295 295 296 297 298 298 298 298 299 300 301 301 300 300 300 299 299 299 298 298 298 299 299 299 298
292 287 284 279 283 287 283 287 287 290 284 284 284 285 287 289 289 291 292 295 295 296 296 297 297 298 298 298 299 299 300 301 301 300 299 299 299 299 299 299 299 299 298 297
291 284 286 286 284 286 287 286 286 286 288 284 286 286 288 290 290 291 294 295 294 295 295 296 296 296 296 297 298 299 299 299 300 299 299 299 300 300 299 299 298 298 297 296
291 286 286 283 286 286 283 287 287 287 288 288 286 287 292 293 293 293 294 294 295 295 295 295 295 295 295 295 296 298 298 299 300 299 299 299 299 298 298 297 297 296 295 295
288 285 284 280 285 285 281 285 287 287 289 289 286 290 291 292 292 293 294 294 294 295 294 294 294 295 295 295 296 295 297 298 299 299 298 298 298 297 297 297 296 295 294 295
286 286 284 283 283 274 286 291 291 288 289 291 291 292 291 292 294 295 297 296 295 294 294 294 294 295 294 295 294 295 296 296 296 295 295 296 296 297 297 296 295 295 295 295
292 287 282 280 280 284 286 288 287 285 286 292 291 292 292 292 293 292 296 297 295 295 294 294 294 293 293 292 292 293 293 294 293 291 292 292 294 294 294 294 295 295 294 294
289 291 286 282 279 276 286 291 294 292 284 293 293 292 290 292 288 292 295 294 293 293 293 292 292 292 291 290 291 291 291 291 289 288 289 291 291 292 292 293 293 292 292 289
284 283 282 282 281 286 292 289 294 283 285 295 293 293 292 290 294 295 295 294 294 293 291 291 291 289 289 290 291 290 290 289 289 288 289 289 289 289 289 291 290 289 289 288
283 282 282 283 281 279 291 289 287 291 291 292 293 294 293 291 292 292 292 291 291 290 290 290 289 288 288 289 290 289 289 290 289 289 288 286 286 287 287 287 288 287 288 287
283 288 286 287 286 289 292 290 293 292 292 291 292 294 292 290 289 290 290 290 290 289 287 288 288 287 287 288 288 288 288 288 287 285 284 284 285 285 286 285 286 287 287 286
285 287 287 286 291 289 291 291 292 292 292 293 294 293 293 290 290 289 289 288 287 287 286 286 286 286 286 287 286 287 287 287 285 284 285 285 285 285 286 286 286 286 286 285
287 287 285 286 285 287 289 292 292 291 292 291 292 293 292 291 290 290 289 287 287 285 286 286 286 286 285 286 286 286 286 286 285 285 286 286 286 285 285 286 286 285 286 285
287 287 285 286 290 292 292 292 292 291 290 291 290 289 290 291 290 289 287 287 285 285 285 285 285 286 285 285 285 285 285 285 284 285 285 285 285 285 285 285 285 288 287 287
Wind_Speed
15 13 20 21 19 17 15 14 16 11 5 7 16 16 16 14 10 11 12 13 14 14 14 16 17 17 16 16 17 17 16 15 12 10 9 9 9 9 9 8 11 10 10 11
11 21 18 16 17 14 9 12 14 4 2 4 10 15 14 16 18 16 15 14 14 14 15 16 19 18 18 18 18 18 17 17 14 10 9 8 9 8 8 8 9 11 11 11
16 5 19 16 18 17 16 14 13 7 5 5 7 18 20 20 19 16 16 16 16 16 16 17 18 20 19 19 19 18 17 17 15 13 9 7 5 5 7 8 8 10 12 12
15 8 14 13 20 20 18 8 3 7 5 7 3 6 5 10 12 14 15 15 16 15 14 15 18 19 19 19 16 17 17 17 15 16 13 15 9 8 8 8 8 8 12 12
9 8 12 19 20 19 14 11 9 6 4 4 7 6 6 6 10 11 11 9 10 11 12 15 15 16 18 16 16 16 16 16 15 15 14 11 12 8 5 6 9 10 9 11
2 1 8 11 9 12 13 10 6 4 5 8 13 9 6 7 5 8 7 4 3 6 7 7 8 11 13 13 13 15 16 17 16 17 17 15 13 10 7 7 6 6 7 8
8 6 2 2 8 5 14 16 6 6 7 8 3 5 13 3 4 6 5 3 0 2 6 5 8 9 11 12 13 13 15 16 16 16 15 16 14 12 11 9 8 8 7 7
11 9 14 12 11 11 23 19 6 7 6 7 2 9 5 2 1 1 1 1 2 4 3 3 2 6 9 9 12 13 13 13 15 15 15 13 13 8 9 10 8 8 7 8
12 10 7 4 1 9 18 16 1 6 2 1 6 6 6 4 5 6 6 6 6 6 6 5 4 3 4 7 9 11 11 11 12 13 12 13 12 12 10 10 9 7 8 7
5 5 6 3 1 3 8 9 6 3 6 5 5 6 7 11 11 8 9 8 7 7 7 7 7 5 4 4 6 8 9 10 10 11 10 10 10 11 10 8 10 9 8 9
3 1 5 5 11 15 6 8 7 5 3 3 2 5 5 17 14 12 9 6 7 7 7 7 7 6 6 5 5 5 6 7 7 7 8 9 8 9 9 9 9 9 9 9
6 4 6 12 3 3 8 15 15 7 6 3 1 1 8 15 14 10 9 7 5 6 6 7 7 7 6 6 5 4 4 5 6 7 7 7 7 8 9 10 10 9 10 10
12 6 6 3 3 2 7 10 15 10 1 7 5 1 6 13 11 8 8 6 5 6 7 6 7 7 7 6 5 4 3 3 5 6 7 7 8 8 9 10 10 10 11 11
13 6 13 14 4 8 11 16 11 18 9 5 10 6 10 13 12 9 7 5 6 6 6 7 7 7 7 7 7 6 5 2 2 4 5 6 7 8 9 9 9 9 9 10
9 7 7 11 2 4 8 16 15 20 19 15 8 9 17 20 16 11 9 8 7 6 6 6 6 6 7 7 7 7 6 5 2 1 3 4 4 5 6 6 7 7 8 8
3 2 7 3 5 1 4 8 18 19 16 19 1 7 1 12 13 12 10 10 9 7 7 6 6 6 6 7 7 7 8 7 4 4 3 3 3 4 4 5 6 6 7 7
9 6 4 19 8 3 5 13 16 15 16 20 17 9 5 16 17 14 12 12 11 9 7 6 5 6 6 7 7 7 7 7 7 7 6 6 5 5 4 4 5 5 7 7
8 8 2 3 6 8 11 4 14 19 17 19 20 9 13 13 11 9 8 12 12 11 8 6 5 5 6 6 7 6 7 7 7 8 8 8 7 7 5 5 5 6 6 6
8 4 3 5 10 4 11 9 9 12 12 14 16 9 10 12 11 4 8 9 10 10 7 6 5 5 6 7 7 6 7 7 8 9 9 9 9 8 6 5 5 6 6 5
4 11 5 8 6 12 7 8 14 6 13 19 23 18 16 15 11 9 14 12 11 9 7 6 5 5 7 6 6 6 7 8 9 10 9 9 8 9 9 8 6 4 5 4
7 3 10 8 6 7 5 8 12 12 6 12 23 21 18 15 5 18 17 14 11 9 8 7 7 7 6 6 6 7 7 9 8 7 6 6 7 7 7 6 5 5 5 4
11 10 6 4 6 11 9 9 13 1 1 3 7 18 17 10 15 17 15 15 12 10 8 7 6 5 4 5 6 6 6 6 5 5 5 5 5 4 4 5 4 4 4 4
9 9 7 10 7 3 14 3 1 2 3 2 7 8 17 18 16 14 13 13 10 9 7 5 5 4 2 2 3 3 3 4 5 5 4 4 4 3 4 4 5 4 4 4
5 1 4 3 8 4 10 2 3 1 2 6 9 15 18 18 14 14 12 10 9 8 7 5 5 4 3 1 1 2 4 4 4 5 4 3 4 6 5 4 4 4 5 5
3 11 6 4 2 1 5 7 6 7 8 12 10 11 15 18 13 12 11 10 9 8 5 4 4 3 3 1 2 2 3 4 4 4 4 5 4 4 4 3 3 3 3 4
6 6 8 6 9 5 6 14 11 12 11 10 14 9 7 11 13 12 10 8 9 8 6 5 5 4 3 2 3 3 3 3 4 4 4 4 4 5 5 5 5 6 7 10
Wind_Direction
196 206 211 207 211 227 249 221 231 222 103 240 234 245 244 193 202 223 222 219 209 209 196 189 191 187 188 189 186 186 186 187 184 188 188 197 203 206 212 212 213 207 205 200
179 224 215 223 213 222 240 222 229 98 169 235 254 251 253 244 235 221 228 220 221 213 197 189 187 190 196 193 191 188 192 189 191 187 190 198 204 211 214 213 217 214 208 206
207 214 221 218 212 211 217 227 227 253 165 226 286 270 248 237 234 226 231 232 223 212 207 191 193 194 195 198 196 193 191 191 190 188 186 195 212 208 213 214 213 215 214 209
232 208 213 199 214 212 212 212 226 173 201 246 211 286 205 221 204 223 223 227 228 229 220 199 195 200 198 202 197 194 194 192 189 190 189 193 199 198 211 209 212 211 213 215
188 191 193 214 213 211 227 164 180 177 223 301 204 256 236 161 212 206 213 224 231 235 222 213 202 201 203 197 196 193 195 191 186 193 195 195 207 209 199 200 209 209 206 217
214 32 225 220 212 203 137 133 135 162 222 246 235 228 257 198 179 160 177 192 222 227 226 233 230 200 204 193 193 190 195 192 189 194 199 201 208 211 199 194 206 206 208 206
183 184 164 223 147 154 185 170 173 206 212 238 57 226 264 177 248 284 267 289 25 184 193 200 200 209 214 195 189 191 195 196 192 196 201 209 211 207 210 200 205 204 204 207
175 203 181 185 212 192 198 192 177 197 206 208 108 226 233 24 356 288 208 129 129 118 126 128 186 205 205 210 188 195 197 197 194 198 205 209 212 212 211 208 209 214 212 212
191 186 140 186 258 190 197 216 202 108 60 201 198 242 261 158 133 140 125 128 104 89 76 72 85 128 176 192 200 201 196 203 201 202 203 210 209 211 212 210 216 222 221 213
219 157 200 119 212 256 224 161 182 227 174 220 192 259 220 179 165 151 138 121 104 91 81 71 66 75 100 150 181 192 202 202 207 200 207 213 212 215 218 220 219 222 228 221
221 38 133 156 210 183 167 189 208 229 225 255 206 233 334 171 162 153 135 113 98 83 71 65 65 73 85 102 136 171 192 200 205 198 210 216 217 219 221 223 228 227 227 228
158 107 149 198 58 11 253 213 199 201 188 237 341 266 318 150 151 143 137 124 98 87 79 73 73 73 80 89 113 144 167 184 197 200 208 214 219 220 224 228 231 230 231 230
169 179 112 170 226 210 221 205 218 219 35 193 159 152 328 138 143 145 141 123 96 90 89 83 73 66 66 71 81 95 133 172 186 193 200 210 217 222 225 228 231 229 231 231
165 168 197 201 215 159 206 208 218 213 216 165 226 144 178 170 167 163 160 142 118 94 87 86 75 67 59 53 47 51 58 69 162 190 206 220 225 228 233 235 239 240 235 236
182 199 212 205 27 314 212 199 193 212 218 215 214 203 188 184 172 168 159 143 139 125 101 80 72 65 60 49 49 43 45 42 27 247 235 249 251 254 252 249 247 246 245 244
222 242 172 185 235 247 261 239 204 221 220 234 148 240 251 163 168 164 168 160 158 148 125 111 99 80 59 42 35 35 31 27 20 30 3 340 311 292 278 273 265 258 252 247
162 137 146 232 179 329 272 226 220 224 222 223 222 213 177 169 182 180 167 166 162 154 142 125 102 81 57 39 23 23 16 20 28 28 21 9 352 327 310 293 276 265 263 260
150 131 129 138 119 229 246 223 220 224 227 220 232 181 175 183 170 153 161 159 152 151 142 123 101 87 58 38 27 14 21 24 25 25 16 7 355 346 338 318 302 290 280 273
185 123 185 197 205 299 257 205 186 186 239 226 222 200 169 125 125 134 152 153 145 141 124 110 90 70 64 39 17 19 27 26 26 14 4 355 350 340 331 322 322 320 311 300
203 164 184 172 200 211 250 226 174 150 265 203 206 199 157 157 185 168 159 139 132 126 113 106 91 83 65 35 20 29 28 26 18 2 348 345 348 344 340 340 341 343 322 321
163 137 203 180 215 268 206 155 156 187 243 224 195 194 168 190 199 135 142 137 132 127 114 103 83 75 55 28 21 32 26 23 0 340 335 345 346 341 340 339 341 343 340 326
167 169 184 169 219 252 135 142 187 288 344 266 216 191 176 123 116 132 132 132 134 126 105 81 89 76 51 24 20 23 22 355 332 334 336 336 336 342 340 349 342 344 346 325
195 198 179 204 203 101 187 35 216 302 255 143 137 109 127 127 129 126 126 128 127 122 111 115 115 111 75 32 14 4 357 338 329 334 324 327 325 337 346 1 4 353 359 350
203 166 206 138 201 192 196 204 256 208 144 133 136 129 133 129 130 128 128 126 131 132 136 136 135 131 129 48 37 358 338 334 317 329 325 338 353 0 13 10 16 9 6 358
143 153 170 272 228 186 211 223 170 132 115 115 109 124 131 128 134 136 135 135 133 135 137 144 142 141 128 115 58 4 342 341 343 338 346 2 2 14 2 23 13 9 8 349
194 165 184 223 161 202 208 182 156 152 152 138 126 109 94 130 131 132 129 131 138 146 147 149 148 142 129 107 80 39 14 10 12 24 15 15 14 16 20 22 20 45 27 27